Home > Weather > Stockton > Past weeks

Flag for U.S.A. Weather for the Past 2 Weeks in Stockton, California, U.S.A.

Now
46 °F

Clear.


Feels Like: 43 °F
Forecast: 42 / 72 °F
Wind: 6 mph from East

Location: Stockton Metropolitan Airport

Current Time: Feb 8, 2016 at 2:50:03 AM

Latest Report: Feb 8, 2016 at 1:55 AM


Visibility: 8 mi

Pressure: 30.23 "Hg

Humidity: 89%

Dew point: 43 °F

Location of StocktonLocation

Historic Weather in Stockton — Graph

°F

Stockton Temperature Yesterday

Maximum temperature yesterday: 68 °F (at 3:55 PM)
Minimum temperature yesterday: 39 °F (at 6:55 AM)
Average temperature yesterday: 52 °F

High & Low Weather Summary for the Past Weeks

 TemperatureHumidityPressure
High68 °F (Feb 7, 3:55 PM)100% (Jan 24, 6:55 AM)30.48 "Hg (Jan 24, 6:55 AM)
Low35 °F (Feb 3, 4:55 AM)31% (Feb 1, 2:55 PM)29.70 "Hg (Jan 31, 2:55 PM)
Average49 °F80%30.23 "Hg
* Reported Jan 24 12:55 AM — Feb 8 12:55 AM, Stockton, Weather by CustomWeather, © 2016

Note: Actual official high and low records may vary slightly from our data, if they occured in-between our weather recording intervals... More about our weather records

Advertising

Stockton Weather History for the Previous 24 Hours

 ConditionsComfort  
Time TempWeatherWind HumidityBarometerVisibility
12:55 AM
Mon, Feb 8
46 °FClear.3 mph93%30.24 "Hg8 mi
11:55 PM
Sun, Feb 7
47 °FClear.5 mph90%30.24 "Hg7 mi
10:55 PM47 °FClear.7 mph90%30.24 "Hg7 mi
9:55 PM50 °FClear.6 mph80%30.23 "Hg9 mi
8:55 PM52 °FClear.6 mph77%30.23 "Hg10 mi
7:55 PM54 °FClear.3 mph74%30.22 "Hg10 mi
6:55 PM56 °FClear.6 mph70%30.21 "Hg10 mi
5:55 PM60 °FClear.3 mph62%30.20 "Hg10 mi
4:55 PM65 °FSunny.5 mph52%30.19 "Hg10 mi
3:55 PM68 °FSunny.3 mph45%30.19 "Hg10 mi
2:55 PM66 °FSunny.No wind47%30.19 "Hg10 mi
1:55 PM65 °FSunny.5 mph51%30.21 "Hg10 mi
12:55 PM63 °FSunny.5 mph54%30.23 "Hg10 mi
11:55 AM61 °FSunny.No wind56%30.27 "Hg10 mi
10:55 AM58 °FSunny.No wind65%30.29 "Hg10 mi
9:55 AM53 °FSunny.5 mph77%30.29 "Hg8 mi
8:55 AM49 °FFog.3 mph86%30.29 "Hg3 mi
7:55 AM42 °FFog.3 mph96%30.28 "Hg3 mi
6:55 AM39 °FFog.5 mph96%30.28 "Hg2 mi
5:55 AM41 °FFog.5 mph93%30.27 "Hg3 mi
4:55 AM41 °FFog.5 mph93%30.27 "Hg5 mi
3:55 AM41 °FClear.3 mph93%30.28 "Hg8 mi
2:55 AM42 °FClear.3 mph92%30.29 "Hg10 mi
Weather by CustomWeather, © 2016

See weather overviewHow to use our weather pages